Weather History for MHRO - March, 2014

Change the Weather History Date:

Sunday, March 16, 2014

  Actual Average Record
Temperature  
Mean Temperature 82 °F -  
Max Temperature 88 °F 84 °F 91 °F (2003)
Min Temperature 76 °F 75 °F 68 °F (1999)
Cooling Degree Days 17    
Growing Degree Days 32 (Base 50)    
Moisture  
Dew Point 72 °F    
Average Humidity 64    
Maximum Humidity 79    
Minimum Humidity 48    
Precipitation  
Precipitation 0.00 in - - ()
Sea Level Pressure  
Sea Level Pressure 29.76 in    
Wind  
Wind Speed 17 mph ()    
Max Wind Speed 23 mph    
Max Gust Speed -    
Visibility 6.3 miles    
Events      
Averages and records for this station are not official NWS values.
T = Trace of Precipitation, MM = Missing Value Source: Averaged Metar Reports

Daily Weather History Graph

Daily Weather History Graph

Search for Another Location

Airport or City:

Trip Planner

Search our weather history database for the weather conditions in past years. The results will help you decide how hot, cold, wet, or windy it might be!

Date:

Astronomy

Mar. 16, 2014 Rise Set
Actual Time 5:53 AM CST 5:56 PM CST
Civil Twilight 5:31 AM CST 6:17 PM CST
Nautical Twilight 5:06 AM CST 6:42 PM CST
Astronomical Twilight 4:41 AM CST 7:07 PM CST
Moon 6:05 PM CST (3/16) 5:39 AM CST (3/16)
Length of Visible Light 12h 46m
Length of Day
12h 03m
Full, 100% of the Moon is Illuminated
Mar 16
Full
Mar 23
Last Quarter
Mar 30
New
Apr 7
First Quarter
Apr 15
Full

Hourly Weather History & Observations

Time (CST) Temp. Heat Index Dew Point Humidity Pressure Visibility Wind Dir Wind Speed Gust Speed Precip Events Conditions
6:00 AM 81 °F - 70 °F 62% 29.79 in 6 mi ESE 20.7 mph - -   Haze
6:00 AM 80.6 °F 83.9 °F 69.8 °F 70% 29.77 in 6.2 mi ESE 20.7 mph - N/A   Partly Cloudy
7:00 AM 80.6 °F 83.9 °F 69.8 °F 70% 29.80 in 6.2 mi ESE 19.6 mph - N/A   Partly Cloudy
8:00 AM 82.4 °F 87.2 °F 71.6 °F 70% 29.83 in - ESE 17.3 mph - N/A   Clear
9:00 AM 84 °F - 70 °F 55% 29.86 in 6 mi East 20.7 mph - -   Haze
9:00 AM 84.2 °F 88.4 °F 69.8 °F 62% 29.86 in - East 20.7 mph - N/A   Clear
10:00 AM 84.2 °F 88.4 °F 69.8 °F 62% 29.86 in - East 17.3 mph - N/A   Clear
11:00 AM 86.0 °F 90.4 °F 69.8 °F 58% 29.83 in - East 16.1 mph - N/A   Clear
12:00 PM 87 °F - 71 °F 51% 29.82 in 7 mi East 18.4 mph - -   Haze
12:00 PM 87.8 °F 93.8 °F 71.6 °F 58% 29.80 in - East 18.4 mph - N/A   Clear
1:00 PM 87.8 °F 93.8 °F 71.6 °F 58% 29.77 in 6.2 mi East 17.3 mph - N/A   Partly Cloudy
2:00 PM 87.8 °F 93.8 °F 71.6 °F 58% 29.74 in 6.2 mi East 18.4 mph - N/A   Partly Cloudy
3:00 PM 88 °F - 71 °F 48% 29.71 in 7 mi East 19.6 mph - -   Haze
3:00 PM 87.8 °F 93.8 °F 71.6 °F 58% 29.68 in 6.2 mi East 19.6 mph - N/A   Partly Cloudy
4:00 PM 86.0 °F 91.8 °F 71.6 °F 62% 29.68 in 6.2 mi ENE 20.7 mph - N/A   Partly Cloudy
5:00 PM 84.2 °F 90.9 °F 73.4 °F 70% 29.65 in 6.2 mi East 19.6 mph - N/A   Partly Cloudy
6:00 PM 82.4 °F 89.5 °F 75.2 °F 79% 29.65 in - ENE 20.7 mph - N/A   Clear
7:00 PM 82.4 °F 89.5 °F 75.2 °F 79% 29.65 in 6.2 mi ENE 18.4 mph - N/A   Clear
8:00 PM 82.4 °F 89.5 °F 75.2 °F 79% 29.68 in 6.2 mi East 23.0 mph - N/A   Clear